Regional Weather Roundup
Issued by NWS State College, PA

Home | Current Version | Previous Version | Graphics & Text | Print | Product List | Glossary On
Versions: 1 2 3 4 5 6 7 8 9 10 11 12 13 14 15 16 17 18 19 20 21 22 23 24 25 26 27 28 29 30 31 32 33 34 35 36 37 38 39 40 41 42 43 44 45 46 47 48 49 50
000
ASUS41 KCTP 170003
RWRCTP

REGIONAL WEATHER ROUNDUP
NATIONAL WEATHER SERVICE STATE COLLEGE PA
700 PM EST MON JAN 16 2017

Note: "fair" indicates few or no clouds below 12,000 feet with no
significant weather and/or obstructions to visibility.

* = STATION THAT DOES NOT REPORT PRECIPITATION /E.G. RAIN...SNOW...ETC/
    THUNDER OR FOG.

PAZ002>004-007>009-013>016-020>023-029>032-170100-
WESTERN PENNSYLVANIA

CITY           SKY/WX    TMP DP  RH WIND       PRES   REMARKS
ERIE           CLOUDY    35  31  85 CALM      30.25S
MEADVILLE      CLOUDY    36  21  54 CALM      30.22S
FRANKLIN*        N/A     36  27  69 SE5       30.23S
NEW CASTLE     CLOUDY    35  31  85 CALM      30.23F
BEAVER COUNTY  NOT AVBL
BUTLER*        CLOUDY    37  32  81 SE3       30.25F
PITTSBURGH INT CLOUDY    37  34  89 E3        30.22F
PITTSBURGH     LGT RAIN  38  32  79 CALM      30.22F
INDIANA*       CLOUDY    39  36  87 CALM      30.27S
LATROBE        CLOUDY    37  37 100 CALM      30.25F FOG
WASHINGTON CO* CLOUDY    37  36  93 NE3       30.23F
$$

PAZ004>006-010>012-017>019-024>028-033>037-041-042-045-046-049>053-170100-
CENTRAL PENNSYLVANIA

CITY           SKY/WX    TMP DP  RH WIND       PRES   REMARKS
BRADFORD       CLOUDY    34  28  79 CALM      30.21F
DUBOIS         CLOUDY    36  26  67 SE5       30.22F
CLEARFIELD     CLOUDY    35  27  72 NE6       30.25F
JOHNSTOWN      CLOUDY    35  34  96 E5        30.21F FOG
ALTOONA        LGT RAIN  34  33  96 CALM      30.28F FOG
STATE COLLEGE  DRIZZLE   34  27  75 SW3       30.30R
WILLIAMSPORT   CLOUDY    36  24  62 CALM      30.32F
SELINSGROVE    CLOUDY    35  27  72 CALM      30.34S
FT INDIANTOWN  CLOUDY    35  27  73 CALM      30.33F
CAPITAL CITY   CLOUDY    37  25  61 CALM      30.35F
HARRISBURG     CLOUDY    36  30  79 CALM      30.34F
YORK           CLOUDY    36  29  75 CALM      30.33F
$$

PAZ038>040-043-044-047-048-054-055-060>062-067>071-170100-
EASTERN PENNSYLVANIA

CITY           SKY/WX    TMP DP  RH WIND       PRES   REMARKS
SCRANTON       CLOUDY    36  28  73 SW3       30.29S
MOUNT POCONO   CLOUDY    33  22  63 W7        30.25S
ALLENTOWN      CLOUDY    38  24  57 W7        30.34F
QUAKERTOWN*    CLOUDY    37  25  60 SW5       30.34S
READING        CLOUDY    37  23  56 S5        30.33F
LANCASTER      CLOUDY    36  26  67 CALM      30.34F
COATESVILLE    CLOUDY    36  23  60 CALM      30.35F
POTTSTOWN      CLOUDY    37  23  56 CALM      30.36F
BLUE BELL      CLOUDY    37  25  60 CALM      30.35S
DOYLESTOWN     CLOUDY    40  24  53 SW3       30.33F
WILLOW GROVE   NOT AVBL
NORTH PHILA    CLOUDY    41  24  51 SW6       30.37F
PHILADELPHIA   CLOUDY    39  25  57 S5        30.37F
$$




USA.gov is the U.S. government's official web portal to all federal, state and local government web resources and services.